Location: Austin
(30.3000°N, 97.7500°W)
Time: 23:02:08
(UTC-06:00)

Cosmos 1484 Rocket - Pass Details

Date: 03 December 2025
Orbit: 443 x 473 km, 97.6° (Epoch: 07 December)

Event Time Altitude Azimuth Distance (km) Brightness Sun altitude
Rises 05:52:29 0° 18° (NNE) 2,472 6.2 -16.8°
Reaches altitude 10° 05:54:34 10° 24° (NNE) 1,590 5.3 -16.4°
Maximum altitude 05:57:53 49° 100° (E) 591 3.4 -15.7°
Drops below altitude 10° 06:01:08 10° 176° (S) 1,565 5.4 -15.0°
Sets 06:03:11 0° 182° (S) 2,428 6.3 -14.6°
